Regional Weather Roundup
Issued by NWS Charleston, SC

Home | Current Version | Previous Version | Text Only | Print | Product List | Glossary On
Versions: 1 2 3 4 5 6 7 8 9 10 11 12 13 14 15 16 17 18 19 20 21 22 23 24 25 26 27 28 29 30 31 32 33 34 35 36 37 38 39 40 41 42 43 44 45 46 47 48 49 50
000
ASUS42 KCHS 310125
RWRCHS

REGIONAL WEATHER ROUNDUP
NATIONAL WEATHER SERVICE CHARLESTON SC
900 PM EDT SAT AUG 30 2014

NOTE: "FAIR" INDICATES FEW OR NO CLOUDS BELOW 12,000 FEET WITH NO
SIGNIFICANT WEATHER AND/OR OBSTRUCTIONS TO VISIBILITY.

NOT ALL STATIONS ARE QUALITY CONTROLLED BY THE NATIONAL
WEATHER SERVICE. USE DATA WITH CAUTION...ESPECIALLY
DEWPOINT OBSERVATIONS.

SCZ027-030-031-034>040-042>050-310200-
...SOUTH CAROLINA...

CITY           SKY/WX    TMP DP  RH WIND       PRES   REMARKS
N CHARLESTON   PTCLDY    82  75  79 SE6       30.13R
WATERFRONT PRK   N/A     84 N/A N/A E14         N/A
FORT JOHNSON   NOT AVBL
MOUNT PLEASANT FAIR      79  75  89 E3        30.14R
JOHNS ISLAND   CLEAR     81  77  89 CALM      30.14R
PINOPOLIS        N/A     82  73  74 SE2       30.06R
MONCKS CORNER    N/A     79  77  94 CALM      30.14R
SUMMERVILLE    FAIR      79  73  83 CALM      30.14R
BEAUFORT MCAS  CLEAR     81  75  82 S3        30.13R
BEAUFORT ARPT  FAIR      79  77  94 CALM      30.12R
HILTON HEAD IS PTCLDY    82  75  78 E3        30.13R
GEORGETOWN     NOT AVBL
WALTERBORO     CLEAR     79  73  83 SE3       30.14S
ORANGEBURG     PTCLDY    82  70  66 S6        30.14R
BARNWELL       MOCLDY    82  72  69 S8        30.13R
AIKEN          CLOUDY    84  73  70 SE7       30.16R HX  91
MANNING        FAIR      81  75  83 CALM      30.14R
KINGSTREE      NOT AVBL
COLUMBIA       PTCLDY    84  68  58 SE6       30.11R
SUMTER         CLEAR     82  71  69 S6        30.12R
FLORENCE       CLEAR     82  72  71 SE8       30.14R
MYRTLE BEACH   CLEAR     82  73  74 SE9       30.14R
N MYRTLE BEACH CLEAR     82  74  76 S8        30.14R

$$

GAZ063-065-086>088-099>101-113>116-118-119-134-136>141-150-310200-
...GEORGIA...

CITY           SKY/WX    TMP DP  RH WIND       PRES   REMARKS
SAVANNAH ARPT  PTCLDY    83  74  74 E6        30.12R
HUNTER AAF     CLEAR     82  75  81 E3        30.10R
FORT STEWART   CLEAR     80  74  79 E2        30.10R
STATESBORO     NOT AVBL
SYLVANIA       CLEAR     79  74  83 CALM      30.14R
CLAXTON        NOT AVBL
THOMSON        PTCLDY    81  75  80 CALM      30.15R
AUGUSTA-BUSH   PTCLDY    83  71  67 SE8       30.09R
AUGUSTA-DANIEL MOCLDY    87  70  56 SE10      30.12R HX  92
SWAINSBORO     FAIR      86  73  66 SE8       30.12R HX  93
VIDALIA          N/A     82  72  69 SE6       30.11R
ALMA           CLEAR     84  72  67 E6        30.09R
WAYCROSS       CLEAR     86  77  75 SE6       30.10R HX  97
JESUP            N/A     82  77  83 SE3       30.11R HX  91
BRUNSWICK      PTCLDY    79  73  83 E3        30.11R
SAINT SIMONS   CLEAR     82  75  79 E8        30.10R

$$

SCZ027-028-034-036>038-045-046-048>050-GAZ119-141-310200-
...LAKE AND SUPPLEMENTAL COASTAL OBSERVATIONS...

STATION/POSITION TIME  TEMP    WIND        PRES    WAVE   SWELL
                       AIR SEA DIR/SP/G            HT/PER HT/PER/DIR
                 (UTC) (F)     (DEG/KT/KT) (MB)    (FT/S) (FT/S/D)
UPR LAKE MARION  NOT AVBL
WINYAH BAY       0100   82     130/  6     1020.0S
LAKE MURRAY      0000   87     100/  5/  7 1018.6R
ACE BASIN NERRS  0100   81        CALM     1020.0S
FORT PULASKI     0100   82     110/  6/  7 1020.2R
SAPELO ISLAND    0100   81     100/  2     1020.0S

$$

ANZ835-935-AMZ111-154-330-350-352-354-374-450-454-472-310200-
...C-MAN AND BUOY OBSERVATIONS...

STATION/POSITION TIME  TEMP    WIND        PRES    WAVE   SWELL
                       AIR SEA DIR/SP/G            HT/PER HT/PER/DIR
                 (UTC) (F)     (DEG/KT/KT) (MB)    (FT/S) (FT/S/D)
FOLLY BEACH CMAN 0100   83     110/  9/ 11 1020.8R
BUOY 41004       0100   84 84  110/ 12/ 14 1019.6R   2/ 8   2/ 8
BUOY 41008       0100   83 85  120/  8/ 10 1019.6R   2/ 8   2/100/ 8
5E ST. MARYS GA  0100      85                N/A     2/ 8
FRYING PAN BUOY  NOT AVBL
BUOY 41025       0100   80     120/ 12/ 16 1021.3R   3/ 7   3/110/ 7
CAPE LOOKOUT NC  0100   81     150/  9/  9 1021.2R
BUOY 41002       0047   81 83  140/ 12/ 14 1021.7R   3/10   3/140/10
BUOY 41010       0100   83 85  130/  8/ 10 1019.8R   3/ 8   3/ 90/ 8
BUOY 41012       NOT AVBL
ST AUGUSTINE FL  0100   83     140/ 11/ 12 1020.0R
CAPERS NEARSHORE 0000   82     130/ 10/ 14   N/A
FRIPP NEARSHORE  NOT AVBL


$$



USA.gov is the U.S. government's official web portal to all federal, state and local government web resources and services.